Location: Harbor View
(36.2448°N, 86.5797°W)
Time: 06:55:07
(UTC+00:00)

COSMO-SKYMED 1 - Pass Details

Date: 08 March 2021
Orbit: 621 x 623 km, 97.9° (Epoch: 13 April)

Event Time Altitude Azimuth Distance (km) Brightness Sun altitude
Rises 10:42:45 0° 155° (SSE) 2,889 6.2 -17.7°
Reaches altitude 10° 10:44:58 10° 150° (SSE) 1,987 5.4 -17.3°
Maximum altitude 10:49:10 52° 74° (ENE) 775 3.4 -16.5°
Drops below altitude 10° 10:53:23 10° 358° (N) 2,000 5.2 -15.6°
Sets 10:55:37 0° 354° (N) 2,911 6.0 -15.2°
